Location: Newark
(45.8667°N, 9.7333°E)
Time: 13:56:18
(UTC+00:00)

ITAMSAT 1 - Pass Details

Date: 25 February 2020
Orbit: 784 x 796 km, 98.9° (Epoch: 07 April)

Event Time Altitude Azimuth Distance (km) Brightness Sun altitude
Rises 04:51:16 0° 18° (NNE) 3,309 11.1 -14.1°
Reaches altitude 10° 04:53:39 10° 22° (NNE) 2,376 10.4 -13.7°
Maximum altitude 04:58:49 56° 101° (ESE) 941 8.4 -12.8°
Drops below altitude 10° 05:03:56 10° 180° (S) 2,360 10.2 -11.9°
Sets 05:06:18 0° 184° (S) 3,285 10.9 -11.5°
